DAL77B KCLT-KMEM

Flight info

Callsign DAL77B
Flight time N/A
Altitude 32000
Route BOBZY5 BOBZY DCT BRAYN DCT GQO DCT MATCN MONAA4
Aircraft B739/M-SDE2E3FGHIRWXY/LB1

Departure

Time 2026-05-04 01:34
Airport Charlotte Douglas International Airport (KCLT)

Arrival

Time N/A
Airport Memphis International Airport (KMEM)
Time Latitude Longitude Altitude Speed Heading
2026-05-04 00:52 35.22574 -80.93778 737 ft 0 kts 265°
2026-05-04 00:54 35.22572 -80.93787 737 ft 0 kts 265°
2026-05-04 01:28 35.22570 -80.93805 736 ft 6 kts 259°
2026-05-04 01:28 35.22535 -80.93810 736 ft 11 kts 111°
2026-05-04 01:28 35.22506 -80.93716 738 ft 16 kts 87°
2026-05-04 01:28 35.22518 -80.93543 739 ft 24 kts 86°
2026-05-04 01:29 35.22376 -80.93401 737 ft 31 kts 172°
2026-05-04 01:29 35.22237 -80.93381 737 ft 0 kts 173°
2026-05-04 01:30 35.22233 -80.93384 737 ft 1 kts 239°
2026-05-04 01:30 35.22269 -80.93396 737 ft 12 kts 353°
2026-05-04 01:30 35.22407 -80.93408 737 ft 27 kts 355°
2026-05-04 01:30 35.22515 -80.93462 737 ft 10 kts 281°
2026-05-04 01:31 35.22516 -80.93466 738 ft 0 kts 278°
2026-05-04 01:32 35.22516 -80.93470 738 ft 2 kts 275°
2026-05-04 01:32 35.22514 -80.93523 739 ft 10 kts 268°
2026-05-04 01:32 35.22463 -80.93609 739 ft 18 kts 191°
2026-05-04 01:32 35.22361 -80.93608 739 ft 0 kts 175°
2026-05-04 01:33 35.22332 -80.93606 739 ft 9 kts 175°
2026-05-04 01:33 35.22176 -80.93591 739 ft 39 kts 176°
2026-05-04 01:34 35.21746 -80.93555 736 ft 80 kts 177°
2026-05-04 01:34 35.21134 -80.93502 726 ft 102 kts 175°
2026-05-04 01:34 35.20164 -80.93439 752 ft 172 kts 178°
2026-05-04 01:34 35.18961 -80.93353 1535 ft 172 kts 178°
2026-05-04 01:35 35.17792 -80.93450 2134 ft 166 kts 202°
2026-05-04 01:35 35.16943 -80.94315 2698 ft 160 kts 238°
2026-05-04 01:35 35.16613 -80.95624 3024 ft 172 kts 263°
2026-05-04 01:35 35.16748 -80.97098 3516 ft 173 kts 284°
2026-05-04 01:36 35.17236 -80.98347 4206 ft 161 kts 301°
2026-05-04 01:36 35.17964 -80.99437 4581 ft 174 kts 311°
2026-05-04 01:36 35.18865 -81.00542 4900 ft 189 kts 312°
2026-05-04 01:36 35.19798 -81.01799 5091 ft 209 kts 299°
2026-05-04 01:37 35.20186 -81.03380 5955 ft 194 kts 269°
2026-05-04 01:37 35.19956 -81.05070 6206 ft 216 kts 262°
2026-05-04 01:37 35.19679 -81.06975 6005 ft 242 kts 261°
2026-05-04 01:37 35.19395 -81.09029 6249 ft 245 kts 264°
2026-05-04 01:38 35.19251 -81.11119 6785 ft 251 kts 269°
2026-05-04 01:38 35.19225 -81.13267 7387 ft 255 kts 272°
2026-05-04 01:38 35.19247 -81.15423 7929 ft 257 kts 273°
2026-05-04 01:38 35.19277 -81.17627 8084 ft 259 kts 273°
2026-05-04 01:39 35.19298 -81.19815 8089 ft 256 kts 272°
2026-05-04 01:39 35.19315 -81.21970 8089 ft 256 kts 273°
2026-05-04 01:39 35.19331 -81.24143 8088 ft 255 kts 272°
2026-05-04 01:39 35.19346 -81.26302 8091 ft 255 kts 273°
2026-05-04 01:40 35.19362 -81.28491 8095 ft 255 kts 273°
2026-05-04 01:40 35.19377 -81.30653 8084 ft 255 kts 272°
2026-05-04 01:40 35.19392 -81.32821 8093 ft 255 kts 272°
2026-05-04 01:40 35.19390 -81.34996 8079 ft 256 kts 272°
2026-05-04 01:41 35.19356 -81.37167 8079 ft 255 kts 271°
2026-05-04 01:41 35.19303 -81.39329 8071 ft 258 kts 270°
2026-05-04 01:41 35.19241 -81.41606 8296 ft 275 kts 270°
2026-05-04 01:41 35.19175 -81.43912 8937 ft 279 kts 271°
2026-05-04 01:42 35.19108 -81.46345 9311 ft 296 kts 271°
2026-05-04 01:42 35.19037 -81.48898 9954 ft 302 kts 271°
2026-05-04 01:42 35.18963 -81.51470 10429 ft 305 kts 271°
2026-05-04 01:42 35.18888 -81.54044 10558 ft 305 kts 271°
2026-05-04 01:43 35.18801 -81.56660 10578 ft 305 kts 270°
2026-05-04 01:43 35.18709 -81.59231 10587 ft 305 kts 271°
2026-05-04 01:43 35.18616 -81.61797 10599 ft 307 kts 270°
2026-05-04 01:43 35.18514 -81.64460 11209 ft 314 kts 270°
2026-05-04 01:44 35.18376 -81.67098 11995 ft 316 kts 268°
2026-05-04 01:44 35.18221 -81.69684 12685 ft 321 kts 268°
2026-05-04 01:44 35.18053 -81.72395 13512 ft 322 kts 268°
2026-05-04 01:44 35.17888 -81.75127 14248 ft 326 kts 268°
2026-05-04 01:45 35.17726 -81.77838 15055 ft 327 kts 268°
2026-05-04 01:45 35.17561 -81.80639 15801 ft 331 kts 268°
2026-05-04 01:45 35.17233 -81.86240 17263 ft 336 kts 268°
2026-05-04 01:46 35.17065 -81.89078 18016 ft 337 kts 268°
2026-05-04 01:46 35.16896 -81.91926 18665 ft 340 kts 268°
2026-05-04 01:46 35.16725 -81.94787 19410 ft 340 kts 267°
2026-05-04 01:46 35.16552 -81.97682 19999 ft 345 kts 267°
2026-05-04 01:47 35.16378 -82.00590 20666 ft 346 kts 267°
2026-05-04 01:47 35.16202 -82.03498 21248 ft 349 kts 267°
2026-05-04 01:47 35.16023 -82.06463 21825 ft 351 kts 267°
2026-05-04 01:47 35.15842 -82.09428 22441 ft 353 kts 267°
2026-05-04 01:48 35.15660 -82.12414 23011 ft 355 kts 266°
2026-05-04 01:48 35.15474 -82.15437 23493 ft 359 kts 267°
2026-05-04 01:48 35.15287 -82.18479 24119 ft 359 kts 266°
2026-05-04 01:48 35.15098 -82.21536 24593 ft 364 kts 266°
2026-05-04 01:49 35.14907 -82.24609 25091 ft 367 kts 266°
2026-05-04 01:49 35.14714 -82.27711 25610 ft 369 kts 267°
2026-05-04 01:49 35.14519 -82.30819 26262 ft 367 kts 266°
2026-05-04 01:49 35.14327 -82.33871 26903 ft 365 kts 266°
2026-05-04 01:50 35.14130 -82.36980 27413 ft 366 kts 267°
2026-05-04 01:50 35.13931 -82.40117 27552 ft 377 kts 266°
2026-05-04 01:50 35.13727 -82.43341 27889 ft 382 kts 266°
2026-05-04 01:50 35.13525 -82.46526 28525 ft 379 kts 266°
2026-05-04 01:51 35.13319 -82.49736 29154 ft 376 kts 266°
2026-05-04 01:51 35.13114 -82.52902 29724 ft 375 kts 267°
2026-05-04 01:51 35.12911 -82.56040 30209 ft 374 kts 267°
2026-05-04 01:51 35.12706 -82.59200 30689 ft 374 kts 267°
2026-05-04 01:52 35.12636 -82.60276 30862 ft 373 kts 267°